OE7AOT Weather Reports


Display with metric or nautical units.
time (UTC)temp
F
wind
direction
speed
MPH
gust
MPH
rain 1hr
in
rain 24hr
in
rain mn
in
humidity
%
barometer
mb
20260508120658 69 266 5.0 0.0 0.00 0.24 0.00 39 912.1
20260508115058 69 220 5.0 0.0 0.00 0.24 0.00 41 912.0
20260508113458 69 319 4.0 0.0 0.00 0.24 0.00 41 912.0
20260508111858 69 289 7.0 0.0 0.00 0.24 0.00 40 912.1
20260508110258 69 295 9.0 0.0 0.00 0.24 0.00 44 912.2
20260508105458 68 265 6.0 0.0 0.00 0.24 0.00 45 912.2
20260508104658 68 282 4.0 0.0 0.00 0.24 0.00 47 912.3
20260508103858 68 146 5.0 0.0 0.00 0.24 0.00 47 912.4
20260508103058 67 139 5.0 0.0 0.00 0.24 0.00 48 912.4
20260508102658 66 131 6.0 0.0 0.00 0.24 0.00 48 912.4
20260508102258 66 104 6.0 0.0 0.00 0.24 0.00 48 912.4
20260508101858 65 183 5.0 0.0 0.00 0.24 0.00 49 912.5
20260508101458 65 183 5.0 0.0 0.00 0.24 0.00 49 912.5
20260508101258 65 182 6.0 0.0 0.00 0.24 0.00 50 912.5
20260508101058 65 182 6.0 0.0 0.00 0.24 0.00 50 912.5
20260508100858 64 190 6.0 0.0 0.00 0.24 0.00 51 912.5
20260508100658 64 190 6.0 0.0 0.00 0.24 0.00 51 912.5
20260508100458 64 190 6.0 0.0 0.00 0.24 0.00 51 912.5
20260508094717 62 173 7.0 0.0 0.24 1.11 0.24 56 912.7
20260508091717 59 135 9.0 0.0 0.00 1.11 0.00 61 913.0
20260508084717 56 175 9.0 0.0 0.00 1.11 0.00 67 913.2
20260508081717 54 151 13.0 0.0 0.00 1.11 0.00 69 913.2
20260508074717 53 159 16.0 0.0 0.00 1.11 0.00 71 913.3
20260508071717 51 179 12.0 0.0 0.00 1.11 0.00 74 913.2
20260508064717 49 124 17.0 0.0 0.00 1.11 0.00 78 913.2
20260508061717 47 135 14.0 0.0 0.00 1.11 0.00 82 912.8
20260508054717 46 112 6.0 0.0 0.00 1.11 0.00 83 912.9
20260508051717 45 139 9.0 0.0 0.00 1.11 0.00 84 912.9
20260508044717 44 139 3.0 0.0 0.00 1.11 0.00 85 913.0
20260508041717 44 86 6.0 0.0 0.00 1.11 0.00 85 912.8
20260508034717 44 0 0.0 0.0 0.00 1.11 0.00 84 912.6
20260508031717 45 128 6.0 0.0 0.00 1.11 0.00 83 912.5
20260508024717 45 182 5.0 0.0 0.00 1.11 0.00 84 912.5
20260508021717 46 148 3.0 0.0 0.00 1.11 0.00 83 912.6
20260508014717 46 132 9.0 0.0 0.00 1.11 0.00 84 912.8
20260508011717 46 165 9.0 0.0 0.00 1.11 0.00 83 912.7
20260508004717 47 0 0.0 0.0 0.00 1.11 0.00 83 912.9
20260508001717 47 297 2.0 0.0 0.00 1.11 0.00 83 913.2
20260507234717 46 0 0.0 0.0 0.00 1.11 0.00 85 913.4
20260507231717 46 0 0.0 0.0 0.00 1.11 0.00 83 913.4
20260507224717 47 0 0.0 0.0 0.00 1.11 0.00 82 913.3
20260507221717 47 0 0.0 0.0 0.00 1.11 0.00 81 913.5
20260507214717 48 0 0.0 0.0 0.00 1.11 0.00 80 913.6
20260507211717 48 136 4.0 0.0 0.00 1.11 0.00 80 913.5
20260507204717 48 0 0.0 0.0 0.00 1.11 0.00 80 913.6
20260507201717 48 0 0.0 0.0 0.00 1.11 0.00 78 913.2
20260507194717 49 0 0.0 0.0 0.00 1.11 0.00 78 913.0
20260507191717 50 0 0.0 0.0 0.00 1.11 0.00 76 913.0
20260507184717 51 290 2.0 0.0 0.00 1.11 0.00 72 912.7
20260507181717 53 131 4.0 0.0 0.00 1.11 0.00 68 912.4
20260507174717 55 129 10.0 0.0 0.00 1.11 0.00 64 911.8
20260507171717 58 122 9.0 0.0 0.00 1.11 0.00 60 911.6
20260507164717 61 0 0.0 0.0 0.00 1.11 0.00 53 911.4
20260507161717 61 268 3.0 0.0 0.00 1.11 0.00 54 911.4
20260507154717 61 213 3.0 0.0 0.00 1.11 0.00 56 911.5
20260507151717 54 286 3.0 0.0 0.00 1.11 0.00 65 911.5
20260507144717 53 0 0.0 0.0 0.00 1.11 0.00 70 911.7
20260507141717 53 297 9.0 0.0 0.00 1.11 0.00 67 911.6
20260507134717 57 262 13.0 0.0 0.00 1.11 0.00 62 911.1
20260507131717 58 297 7.0 0.0 0.00 1.11 0.00 60 911.0
20260507124717 58 309 6.0 0.0 0.00 1.11 0.00 57 910.9
20260507121717 59 300 4.0 0.0 0.00 1.11 0.00 55 910.8